Regional Weather Roundup
Issued by NWS Sioux Falls, SD

Home | Current Version | Previous Version | Text Only | Print | Product List | Glossary On
Versions: 1 2 3 4 5 6 7 8 9 10 11 12 13 14 15 16 17 18 19 20 21 22 23 24 25 26 27 28 29 30 31 32 33 34 35 36 37 38 39 40 41 42 43 44 45 46 47 48 49 50
000
ASUS43 KFSD 251610
RWRFSD

WEATHER ROUNDUP FOR SE SOUTH DAKOTA/SW MINNESOTA/NW IOWA
NATIONAL WEATHER SERVICE SIOUX FALLS SD
1100 AM CDT TUE APR 25 2017

NOTE: "FAIR" INDICATES FEW OR NO CLOUDS BELOW 12,000 FEET WITH NO
SIGNIFICANT WEATHER AND OR OBSTRUCTIONS TO VISIBILITY.


SDZ038>040-050-052>070-251700-
SOUTHEAST SOUTH DAKOTA

CITY           SKY/WX    TMP DP  RH WIND       PRES   REMARKS
BROOKINGS      CLOUDY    37  34  87 N14       29.64S
CHAMBERLAIN    CLOUDY    37  33  86 N9        29.71F
HURON          CLOUDY    37  33  85 N20       29.71R
MADISON        CLOUDY    37  37 100 N12       29.64S
MITCHELL       CLOUDY    38  34  85 N16       29.68F
SIOUX FALLS    CLOUDY    42  38  85 N13       29.61F
WINNER         CLOUDY    36  33  89 N14       29.69S
YANKTON        CLOUDY    39  36  87 NW21      29.60F
$$

MNZ071-072-080-081-089-090-097-098-251700-
SOUTHWEST MINNESOTA

CITY           SKY/WX    TMP DP  RH WIND       PRES   REMARKS
FAIRMONT       CLOUDY    43  39  87 NW15      29.59R
JACKSON        CLOUDY    39  37  93 NW14      29.60S
LUVERNE        CLOUDY    37  34  87 N8        29.62R
MARSHALL       CLOUDY    37  35  92 NW20      29.62F
MONTEVIDEO     CLOUDY    37  37 100 N15       29.62F FOG
PIPESTONE      CLOUDY    39  34  81 N10       29.59F
REDWOOD FALLS  CLOUDY    41  38  89 NW10      29.60R
TRACY          CLOUDY    38  37  94 NW13G18   29.62S
WINDOM         CLOUDY    39  37  93 NW15      29.61S
WORTHINGTON    CLOUDY    39  37  92 N12       29.61R
$$

IAZ001>003-012>014-020>022-031-032-NEZ013-014-SDZ071-251700-
NORTHWEST IOWA

CITY           SKY/WX    TMP DP  RH WIND       PRES   REMARKS
CHEROKEE       LGT RAIN  42  42  97 N12       29.53R
DENISON        CLOUDY    50  45  81 CALM      29.55R
ESTHERVILLE    CLOUDY    41  40  96 NW10      29.60R
LE MARS        LGT RAIN  43  41  93 N18G25    29.53F
ORANGE CITY    LGT RAIN  39  39 100 N18       29.53F
SHELDON        RAIN      41  39  93 N17       29.55F
SIOUX CITY     CLOUDY    44  43  96 N16       29.53R
SPENCER        RAIN      41  40  96 N14       29.59F FOG
STORM LAKE     PTSUNNY   43  41  93 N20       29.52F
$$

ABBREVIATIONS USED IN REMARKS
   TC - TEMPERATURE IN CELSIUS
  WCI - WIND CHILL INDEX
   HX - HEAT INDEX
  VSB - VISIBILITY





USA.gov is the U.S. government's official web portal to all federal, state and local government web resources and services.